AirNav   Air Wisconsin Up To $57,000 Bonus
 
 1452 users online  

39P Strom Field Airport
Morton, Washington, USA

GOING TO MORTON?


FAA INFORMATION EFFECTIVE 02 JANUARY 2020

Location

FAA Identifier: 39P
Lat/Long: 46-33-01.2990N 122-15-59.8530W
46-33.021650N 122-15.997550W
46.5503608,-122.2666258
(estimated)
Elevation: 941 ft. / 287 m (estimated)
Variation: 20E (1985)
Time zone: UTC -8 (UTC -7 during Daylight Saving Time)
Zip code: 98356

Airport Operations

Airport use: Open to the public
Activation date: 08/1964
Control tower: no
ARTCC: SEATTLE CENTER
FSS: SEATTLE FLIGHT SERVICE STATION
NOTAMs facility: SEA (NOTAM-D service available)
Attendance: UNATNDD
Wind indicator: lighted
Segmented circle: no
Lights: ACTVT MIRL RY 07/25 - CTAF.
Beacon: white-green (lighted land airport)
ACTVT ROTG BCN - CTAF.

Airport Communications

CTAF: 122.9

Nearby radio navigation aids

VOR radial/distance  VOR name  Freq  Var
OLMr115/36.3OLYMPIA VORTAC113.4019E
TCMr152/36.8MCCHORD VORTAC109.6015E

 
NDB name  Hdg/Dist  Freq  Var  ID
LACOMAS141/29.932816ELAC .-.. .- -.-.
KELSO031/35.725617ELSO .-.. ... ---

Airport Services

Parking: tiedowns
Airframe service: NONE
Powerplant service: NONE

Runway Information

Runway 7/25

Dimensions: 1810 x 40 ft. / 552 x 12 m
Surface: asphalt, in fair condition
Runway edge lights: medium intensity
Runway edge markings: MARKINGS FADED.
RUNWAY 7  RUNWAY 25
Latitude: 46-33.022283N46-33.021000N
Longitude: 122-16.213367W122-15.781733W
Traffic pattern: leftleft
Runway heading: 070 magnetic, 090 true250 magnetic, 270 true
Displaced threshold: 200 ft.no
Markings: basic, in poor conditionbasic, in poor condition
Obstructions: 50 ft. pline, 324 ft. from runway, 2:1 slope to clear
+3 FT FENCE AT 35 FT FM THLD AND 32 FT R; GUARD RAIL AND ROAD 98 FT FM THLD; 15 FT SIGN, 18 FT R, 65 FT FM THLD; TREE, 51 FT HIGH, 2 FT R, 120 FT FM THLD.
41 ft. trees, 1318 ft. from runway, 40 ft. both sides of centerline, 27:1 slope to clear
RWY 25 +2 FT ROAD AND GUARD RAIL AT 15 FT FM THLD, TREE, 15 FT HIGH, 49 FT R, 74 FT FM THLD, POLE, 8 FT HIGH, 79 FT R, 8 FT FM THLD.

Airport Ownership and Management from official FAA records

Ownership: Publicly-owned
Owner: CITY OF MORTON
PO BOX 1089
MORTON, WA 98356
Phone 360-496-6881
Manager: ANDERS PULLMAN
PO BOX 1089, PO BOX 1089
MORTON, WA 98356
Phone (360) 496-5210
PUB. WKS. SUP.

Airport Operational Statistics

Aircraft based on the field: 6
Single engine airplanes: 4
Ultralights: 2
    
Aircraft operations: avg 22/day *
82% transient general aviation
18% local general aviation
<1% military
* for 12-month period ending 31 December 2017

Additional Remarks

TREES NEAR RWY.
TREES, STREAM, AND BRUSH IN PRIM SFC.
DEER AND ELK ON & INVOF RWY.
DITCH PARL RWY ON EASTSIDE.
FOR CD CTC SEATTLE ARTCC AT 253-351-3694.

Instrument Procedures

There are no published instrument procedures at 39P.

Some nearby airports with instrument procedures:

KTDO - Ed Carlson Memorial Field - South Lewis Co Airport (23 nm W)
KCLS - Chehalis-Centralia Airport (30 nm W)
KPLU - Pierce County Airport - Thun Field (33 nm N)
KGRF - Gray Army Airfield (Joint Base Lewis-McChord) (34 nm N)
KOLM - Olympia Regional Airport (36 nm NW)
 
Loc | Ops | Rwys | IFR | FBO | Links
Com | Nav | Svcs | Stats | Notes
Area around 39P (Strom Field Airport)
 
Road maps at: MapQuest Bing Google
 
Aerial photo
WARNING: Photo may not be current or correct
Aerial photo of 39P (Strom Field Airport)
Photo taken 01-Sep-2012
looking west.

Do you have a better or more recent aerial photo of Strom Field Airport that you would like to share? If so, please send us your photo.

 
Sectional chart

 
Airport distance calculator
Flying to Strom Field Airport? Find the distance to fly.

From to 39P

Sunrise and sunset
Times for 25-Jan-2020
 Local
(UTC-8)
 Zulu
(UTC)
Morning civil twilight07:0915:09
Sunrise07:4215:42
Sunset17:0101:01
Evening civil twilight17:3401:34

Current date and time
Zulu (UTC)  25-Jan-2020 21:30:52
Local (UTC-8)  25-Jan-2020 13:30:52
 
METAR
KCLS 
30nm W 
252115Z AUTO 20007G15KT 10SM BKN033 OVC039 13/08 A3001 RMK AO2
KPLU 
33nm N 
252115Z AUTO 24007KT 190V280 10SM FEW032 OVC044 14/08 A3001 RMK AO2
KGRF 
33nm N 
252058Z 19011KT 10SM BKN023 BKN034 12/12 A3000 RMK AO2A SLP164 T01220120 52018 $
KTCM 
35nm N 
252058Z AUTO 22012G17KT 10SM SCT025 OVC032 12/12 A3001 RMK AO2 SLP167 T01210119 52018 $
KOLM 
36nm NW 
252054Z 20009KT 10SM OVC030 11/08 A3001 RMK AO2 SLP163 60000 T01110083 51014
KKLS 
37nm SW 
252056Z AUTO VRB06KT 10SM BKN024 13/09 A3004 RMK AO2 SLP175 T01280089 58005
TAF
KGRF 
33nm N 
251305Z 2513/2619 15009KT 8000 -RA BR OVC020 620409 QNH2993INS BECMG 2514/2515 18009KT 9999 VCSH SCT020 BKN040 610509 QNH2995INS BECMG 2523/2524 21009KT 8000 -SHRA BKN020 BKN050 610509 QNH2991INS BECMG 2608/2609 20015G25KT 8000 -SHRA BKN020 BKN050 610509 QNH2976INS TX13/2522Z TN06/2612Z
KTCM 
35nm N 
251302Z 2513/2619 18009KT 9999 VCSH SCT020 BKN040 610509 QNH2997INS BECMG 2523/2524 21009KT 8000 -SHRA BKN020 BKN050 610509 QNH2976INS BECMG 2611/2612 20012G18KT 8000 -SHRA BKN020 BKN050 610509 QNH2976INS TX11/2523Z TN07/2613Z
KOLM 
36nm NW 
251734Z 2518/2618 VRB03KT 6SM BR SCT012 OVC025 TEMPO 2518/2521 3SM BR BKN008 OVC012 FM252200 14006KT P6SM SCT035 BKN060 FM260200 VRB03KT P6SM SCT060 BKN150 FM260500 VRB03KT P6SM -RA OVC045 FM261200 19014G22KT 5SM -RA BR OVC022
NOTAMs
Click for the latest NOTAMs
NOTAMs are issued by the DoD/FAA and will open in a separate window not controlled by AirNav.

 

 
 

Would you like to see your business listed on this page?

 If your business provides an interesting product or service to pilots, flight crews, aircraft, or users of the Strom Field Airport, you should consider listing it here.  To start the listing process, click on the button below
 
Add a business
 

Other Pages about Strom Field Airport

Update a link
 
Copyright © AirNav, LLC. All rights reserved. Privacy Policy  Contact